Vorticity
11 10 9 9 10 10 11 10 9 9 8 7 7 8 8 8 7 7 8 7 6 5 4 6 7 7 8 9 8 6 3 2 3 3 3 4 5 6 7 10 13 16 17 17 16 14 14 15 14 16 22 27
13 12 10 10 10 11 10 9 9 8 7 7 7 7 6 6 6 7 6 5 4 4 5 7 7 7 9 9 8 6 4 3 3 3 3 3 4 6 8 9 11 14 17 17 16 16 15 14 15 16 19 26
11 12 12 12 12 11 10 8 8 7 7 7 6 6 5 4 4 5 5 4 3 4 6 8 8 9 9 9 7 5 4 4 4 3 3 3 4 5 7 8 10 12 15 17 15 15 16 16 16 17 18 23
11 12 13 13 13 11 10 8 7 6 6 6 6 6 5 4 3 4 4 2 2 5 7 8 9 9 9 7 6 5 5 5 4 3 3 3 4 5 6 7 9 11 13 15 15 14 13 14 16 19 19 21
12 13 14 13 12 11 9 8 7 6 6 6 6 6 6 5 5 4 3 2 2 4 7 7 9 9 7 5 4 5 4 4 3 3 3 3 4 4 5 5 7 10 13 13 13 13 12 11 14 18 21 22
13 14 14 13 12 10 9 8 7 6 5 5 5 5 4 4 5 5 3 2 3 5 7 7 8 7 5 3 3 4 3 3 2 2 2 3 4 4 4 5 6 9 13 13 12 11 11 10 11 15 21 24
13 13 12 12 11 9 8 7 6 5 5 5 4 4 3 3 5 5 2 2 4 6 6 6 7 6 3 3 3 3 3 2 3 2 3 3 3 4 4 5 7 10 13 14 13 10 10 10 10 13 17 23
12 12 11 10 10 9 7 6 6 5 5 5 5 6 5 4 5 3 1 2 5 7 6 6 6 5 3 3 3 3 3 3 3 3 2 4 4 3 5 6 8 11 14 15 14 12 10 10 10 12 14 20
12 11 10 9 9 8 7 6 6 5 6 5 6 9 7 5 5 2 1 4 6 6 5 6 5 4 3 3 4 3 3 3 3 3 2 3 4 4 4 6 10 13 16 16 15 13 11 11 10 11 13 17
10 10 9 8 8 8 7 7 7 7 7 7 9 8 6 4 4 2 3 6 6 6 5 5 5 4 3 3 4 3 3 4 3 3 3 3 4 4 4 6 12 17 19 18 16 15 12 12 11 11 13 17
10 9 9 8 7 7 7 7 7 7 8 9 9 6 4 4 4 3 5 7 6 5 5 5 5 4 4 4 3 3 3 3 3 3 3 4 3 3 4 7 14 20 23 19 16 16 14 14 12 12 12 15
10 9 9 9 9 8 8 8 8 9 9 8 6 4 4 5 4 5 6 6 5 5 5 5 5 4 4 3 3 3 4 4 3 3 3 3 3 2 4 9 16 24 26 20 17 16 15 14 12 12 12 13
9 9 9 10 10 10 10 11 10 10 8 6 5 5 6 5 5 6 5 6 5 5 5 5 4 4 4 3 3 3 3 4 3 3 3 3 3 3 5 10 19 27 27 21 17 16 14 14 12 12 12 12
9 9 8 9 9 9 9 9 9 7 6 5 5 6 6 6 5 5 5 5 5 5 5 5 4 4 4 3 3 4 4 3 3 3 3 3 3 3 6 12 22 29 27 20 16 15 13 13 12 11 12 12
8 8 7 8 7 7 7 6 6 5 5 5 6 6 5 5 5 5 5 5 5 5 5 5 5 4 4 3 3 3 4 3 4 4 3 3 3 4 8 14 24 30 27 19 15 14 12 13 12 10 11 12
7 7 7 7 7 7 6 5 5 5 6 6 6 5 5 5 4 4 5 5 6 5 5 5 5 5 4 3 3 3 4 4 4 4 4 3 3 5 10 17 25 30 26 18 14 12 12 13 11 9 9 11
7 7 7 7 7 7 6 5 5 6 6 6 6 5 4 4 4 5 5 5 6 5 6 6 5 5 4 3 3 4 4 4 5 4 4 3 4 5 11 19 27 29 24 17 13 11 11 13 11 9 8 9
7 7 7 7 7 6 5 5 5 5 6 5 5 4 4 4 4 5 5 5 5 6 6 6 6 5 4 4 4 5 4 5 5 5 4 3 4 6 12 22 29 28 21 16 12 10 12 14 12 7 7 9
6 6 6 6 6 6 5 5 5 6 6 5 5 4 4 5 5 5 5 6 5 6 6 5 6 5 4 4 4 5 5 6 6 5 4 4 5 7 14 23 30 27 19 15 10 10 13 13 13 6 6 11
6 6 6 5 5 6 6 6 7 6 6 5 4 4 5 5 6 6 6 6 6 6 6 6 6 5 5 5 5 6 5 6 6 6 5 4 6 8 15 25 30 26 18 14 9 10 14 13 12 6 5 10
6 6 6 6 6 7 7 7 7 6 6 5 5 5 6 6 7 7 7 7 7 7 7 6 6 6 6 6 6 6 6 7 7 6 5 4 7 9 16 26 30 25 16 13 10 10 13 15 12 5 7 9
6 6 6 7 7 8 7 7 6 7 7 7 7 7 7 7 7 8 8 8 7 7 7 7 7 6 6 7 7 7 7 7 7 7 5 5 7 10 17 27 29 23 15 11 9 10 12 15 12 5 7 8
4 4 5 5 6 7 6 7 6 7 7 7 8 8 7 8 8 8 8 8 8 8 8 7 7 6 7 7 8 8 8 8 8 7 6 6 8 11 19 27 29 21 13 11 9 10 12 14 13 6 7 9
3 3 4 4 5 6 6 7 7 7 7 7 8 8 8 8 8 8 8 8 8 8 8 8 8 7 8 8 8 8 8 8 8 7 6 7 9 13 20 27 28 20 11 10 9 9 12 14 14 8 7 9
3 3 3 4 4 5 7 7 8 9 8 8 9 9 9 9 8 8 8 8 8 8 8 8 8 8 8 8 9 9 8 9 8 8 7 7 10 14 21 27 26 19 11 9 9 8 12 14 13 9 7 9
3 4 4 4 5 6 7 9 10 10 9 9 9 8 9 9 8 8 8 8 8 8 8 8 9 9 9 9 9 9 9 9 8 7 7 9 12 16 22 28 24 16 11 9 9 8 11 14 12 10 8 8
4 5 5 6 7 8 9 10 10 10 10 10 8 8 8 8 8 8 8 7 8 9 9 10 10 9 10 9 9 10 9 9 9 7 8 10 14 17 21 27 24 15 10 10 9 8 10 12 12 9 8 10
5 7 8 8 9 10 11 11 11 11 10 9 9 9 8 8 7 8 8 8 8 9 10 10 10 10 10 10 9 10 9 9 9 7 9 11 14 19 22 26 23 13 10 10 8 8 11 11 11 10 7 10
6 8 9 9 10 11 12 12 11 10 8 7 8 8 8 8 8 8 8 9 9 9 10 10 10 11 11 11 10 10 10 9 9 7 8 11 15 20 23 24 21 13 9 10 9 8 11 12 10 10 8 8
8 9 9 10 11 12 11 10 10 8 8 7 7 6 6 7 7 8 8 8 9 9 10 10 10 10 10 11 11 10 10 9 9 8 9 12 16 21 24 23 19 13 10 8 9 9 10 13 9 8 10 8
9 9 10 10 10 11 9 9 9 7 7 6 6 6 6 5 5 6 6 7 8 7 8 9 9 10 10 11 11 10 9 9 9 8 9 12 17 23 23 22 17 12 11 7 8 11 10 13 10 7 10 8
Height
5748 5747 5745 5744 5743 5742 5741 5740 5739 5738 5738 5737 5735 5735 5734 5733 5732 5731 5731 5730 5729 5729 5728 5726 5725 5724 5723 5723 5721 5721 5720 5718 5715 5715 5714 5712 5710 5709 5709 5708 5707 5704 5701 5699 5700 5703 5704 5705 5709 5712 5714 5716
5743 5741 5740 5739 5738 5737 5736 5735 5734 5734 5733 5732 5731 5730 5729 5728 5727 5726 5726 5725 5724 5723 5722 5721 5720 5719 5718 5717 5716 5715 5715 5713 5711 5710 5709 5707 5705 5704 5702 5701 5700 5698 5696 5693 5690 5691 5693 5695 5696 5700 5705 5707
5738 5737 5735 5734 5733 5732 5731 5730 5729 5728 5728 5727 5726 5725 5724 5723 5722 5722 5721 5720 5719 5718 5717 5715 5714 5713 5712 5712 5711 5709 5709 5707 5706 5705 5704 5702 5700 5698 5696 5695 5693 5691 5689 5687 5684 5681 5682 5684 5685 5687 5693 5697
5733 5732 5730 5729 5728 5727 5726 5725 5724 5723 5722 5722 5721 5720 5719 5718 5717 5716 5716 5715 5714 5712 5711 5710 5708 5707 5706 5706 5704 5703 5702 5701 5700 5699 5698 5696 5694 5693 5691 5689 5686 5685 5682 5680 5679 5676 5673 5673 5674 5675 5679 5685
5728 5726 5725 5724 5723 5722 5721 5720 5719 5718 5717 5716 5715 5714 5714 5713 5712 5711 5710 5709 5708 5707 5706 5704 5702 5701 5700 5699 5698 5697 5696 5695 5693 5692 5691 5689 5688 5686 5684 5682 5680 5678 5675 5673 5671 5670 5667 5665 5664 5664 5666 5672
5722 5721 5720 5718 5717 5716 5715 5714 5713 5713 5712 5711 5710 5709 5708 5708 5707 5706 5705 5703 5702 5701 5700 5699 5697 5695 5694 5693 5692 5690 5689 5688 5687 5685 5683 5682 5680 5678 5677 5675 5673 5671 5668 5666 5664 5662 5661 5658 5656 5655 5655 5658
5717 5716 5715 5713 5712 5711 5710 5709 5708 5707 5707 5706 5705 5704 5703 5702 5701 5700 5698 5697 5695 5694 5693 5692 5691 5689 5687 5686 5685 5683 5682 5681 5679 5677 5676 5674 5671 5670 5669 5666 5664 5662 5660 5658 5655 5654 5653 5651 5649 5647 5646 5646
5712 5711 5709 5708 5707 5706 5705 5704 5703 5702 5702 5701 5700 5698 5697 5696 5695 5693 5692 5690 5689 5687 5686 5685 5684 5683 5681 5679 5677 5676 5674 5673 5671 5669 5668 5666 5663 5661 5660 5657 5654 5652 5651 5649 5647 5645 5644 5643 5642 5640 5639 5639
5707 5705 5704 5703 5702 5701 5700 5699 5698 5697 5696 5696 5694 5693 5692 5690 5689 5687 5685 5683 5682 5680 5679 5678 5677 5675 5674 5672 5670 5668 5667 5665 5663 5661 5659 5657 5655 5652 5650 5648 5645 5642 5640 5639 5638 5636 5635 5635 5634 5633 5632 5632
5702 5701 5699 5698 5697 5696 5695 5694 5693 5692 5691 5690 5689 5687 5686 5684 5682 5681 5679 5677 5675 5673 5672 5671 5669 5668 5666 5664 5662 5660 5658 5656 5654 5652 5649 5648 5646 5644 5641 5638 5635 5632 5629 5628 5627 5626 5625 5625 5625 5625 5624 5624
5697 5696 5695 5693 5692 5691 5690 5688 5687 5686 5685 5684 5682 5681 5680 5678 5676 5674 5672 5670 5668 5666 5665 5663 5662 5660 5658 5656 5654 5651 5649 5647 5644 5642 5639 5637 5635 5634 5631 5628 5625 5622 5619 5617 5616 5616 5615 5615 5615 5614 5615 5615
5692 5691 5690 5688 5687 5686 5685 5683 5682 5681 5679 5678 5676 5675 5673 5671 5669 5667 5665 5663 5661 5659 5657 5656 5654 5652 5650 5648 5645 5643 5640 5637 5635 5632 5630 5627 5625 5622 5620 5617 5614 5611 5608 5607 5606 5605 5604 5604 5604 5604 5604 5605
5688 5687 5685 5684 5682 5681 5679 5678 5677 5675 5674 5672 5670 5668 5667 5664 5663 5660 5658 5656 5654 5652 5650 5649 5647 5644 5642 5640 5637 5634 5631 5628 5625 5623 5620 5617 5614 5611 5609 5606 5603 5600 5597 5596 5595 5594 5594 5593 5593 5593 5594 5594
5684 5682 5681 5679 5677 5676 5674 5673 5671 5670 5668 5666 5664 5662 5660 5658 5656 5654 5652 5649 5647 5645 5643 5641 5639 5636 5634 5631 5629 5626 5622 5619 5616 5613 5610 5607 5604 5601 5597 5595 5592 5589 5587 5585 5584 5583 5583 5582 5582 5582 5583 5583
5680 5678 5676 5674 5672 5671 5669 5667 5666 5664 5662 5660 5658 5656 5653 5651 5649 5647 5645 5643 5640 5638 5635 5633 5631 5628 5626 5623 5620 5617 5614 5611 5607 5604 5601 5597 5594 5591 5587 5584 5581 5578 5576 5575 5573 5572 5572 5572 5571 5571 5572 5572
5675 5673 5671 5669 5667 5666 5664 5662 5660 5658 5656 5654 5651 5649 5647 5644 5642 5640 5638 5636 5633 5630 5628 5625 5623 5620 5617 5615 5612 5608 5606 5602 5598 5594 5591 5587 5584 5580 5576 5573 5570 5567 5566 5564 5563 5562 5562 5561 5561 5561 5561 5561
5671 5669 5666 5664 5662 5660 5658 5656 5654 5651 5649 5647 5645 5642 5640 5638 5635 5632 5630 5628 5625 5623 5620 5617 5615 5612 5609 5606 5603 5599 5596 5593 5590 5585 5581 5577 5574 5570 5566 5562 5559 5557 5556 5554 5553 5551 5551 5551 5551 5550 5550 5550
5666 5664 5662 5660 5657 5655 5652 5650 5647 5645 5643 5641 5638 5636 5633 5631 5628 5625 5622 5620 5617 5615 5612 5609 5606 5603 5600 5597 5594 5590 5587 5584 5581 5576 5572 5568 5564 5560 5556 5553 5549 5547 5546 5544 5543 5542 5540 5540 5540 5540 5540 5540
5660 5658 5657 5655 5652 5649 5647 5644 5641 5639 5637 5634 5631 5629 5626 5624 5621 5618 5615 5612 5609 5606 5603 5600 5597 5594 5591 5588 5585 5581 5578 5575 5572 5568 5563 5559 5555 5551 5547 5543 5540 5537 5536 5535 5533 5532 5530 5530 5530 5530 5530 5529
5655 5653 5651 5649 5646 5644 5641 5638 5635 5632 5630 5627 5624 5621 5618 5616 5613 5610 5606 5603 5601 5598 5595 5592 5589 5586 5582 5579 5576 5573 5569 5566 5563 5559 5555 5550 5545 5542 5538 5534 5530 5528 5526 5525 5523 5522 5521 5520 5520 5520 5519 5519
5650 5648 5645 5643 5640 5638 5635 5632 5628 5626 5623 5620 5617 5614 5611 5608 5605 5602 5598 5595 5592 5589 5586 5583 5580 5577 5574 5570 5567 5564 5560 5557 5554 5550 5546 5541 5536 5532 5529 5526 5522 5519 5517 5516 5514 5513 5511 5510 5510 5510 5510 5509
5645 5642 5639 5636 5634 5631 5628 5625 5621 5618 5615 5612 5609 5606 5603 5600 5596 5593 5590 5587 5583 5580 5577 5574 5571 5568 5565 5561 5558 5555 5551 5548 5545 5541 5537 5533 5527 5523 5520 5517 5514 5511 5509 5507 5505 5504 5502 5501 5500 5500 5500 5500
5639 5636 5633 5630 5627 5624 5621 5618 5614 5611 5607 5604 5601 5598 5595 5591 5588 5584 5581 5578 5574 5571 5568 5565 5562 5559 5556 5552 5549 5546 5542 5539 5535 5532 5528 5524 5519 5514 5511 5508 5506 5503 5501 5499 5497 5495 5493 5492 5491 5491 5490 5490
5632 5629 5625 5622 5620 5616 5613 5610 5607 5604 5600 5596 5592 5589 5586 5583 5579 5575 5572 5569 5565 5562 5558 5556 5553 5550 5547 5543 5540 5536 5533 5529 5526 5523 5519 5515 5510 5506 5502 5499 5497 5495 5493 5491 5489 5487 5485 5483 5482 5482 5481 5481
5625 5621 5618 5615 5612 5608 5605 5603 5599 5596 5592 5588 5584 5580 5577 5574 5570 5566 5563 5560 5556 5553 5549 5546 5543 5540 5538 5534 5531 5527 5524 5520 5517 5514 5510 5506 5502 5498 5494 5490 5489 5487 5485 5483 5481 5479 5477 5475 5474 5474 5472 5471
5618 5614 5611 5607 5604 5600 5597 5594 5591 5587 5584 5580 5576 5572 5568 5565 5561 5557 5554 5550 5547 5543 5540 5536 5533 5530 5528 5525 5522 5518 5515 5511 5507 5504 5500 5496 5493 5489 5486 5482 5480 5479 5477 5475 5473 5472 5470 5468 5466 5466 5464 5463
5611 5607 5604 5600 5596 5592 5589 5586 5582 5578 5574 5570 5567 5564 5560 5556 5551 5548 5545 5541 5538 5534 5530 5527 5523 5520 5518 5515 5512 5508 5505 5502 5498 5495 5491 5487 5483 5480 5477 5475 5472 5471 5469 5467 5465 5464 5462 5461 5459 5458 5457 5455
5603 5599 5595 5592 5588 5583 5579 5576 5572 5569 5565 5560 5557 5555 5551 5547 5543 5538 5535 5532 5529 5525 5521 5517 5513 5510 5508 5505 5502 5499 5496 5493 5489 5485 5482 5478 5475 5471 5469 5467 5465 5463 5461 5459 5458 5456 5455 5454 5452 5450 5450 5448
5594 5590 5586 5582 5579 5575 5570 5566 5563 5559 5555 5551 5548 5545 5541 5538 5534 5529 5525 5522 5519 5516 5512 5508 5504 5500 5498 5495 5493 5490 5486 5483 5481 5477 5473 5469 5466 5463 5460 5458 5457 5456 5454 5452 5450 5449 5447 5446 5445 5443 5442 5441
5585 5582 5577 5573 5570 5566 5561 5558 5554 5549 5545 5542 5539 5536 5532 5528 5524 5520 5516 5512 5509 5506 5502 5498 5495 5491 5488 5485 5483 5480 5477 5474 5472 5468 5464 5461 5457 5454 5452 5450 5449 5448 5446 5445 5442 5441 5440 5439 5438 5437 5435 5434
5577 5573 5569 5564 5561 5557 5552 5548 5545 5540 5536 5533 5529 5525 5522 5518 5514 5511 5506 5502 5499 5496 5492 5488 5485 5482 5478 5475 5472 5470 5468 5465 5462 5460 5456 5452 5449 5446 5444 5442 5440 5439 5439 5437 5436 5434 5433 5431 5431 5430 5428 5427